Location: ?????????
(44.2517°N, 135.2292°E)
Time: 03:03:11
(UTC+00:00)

IDEFIX/ARIANE 42P - Pass Details

Date: 19 May 2025
Orbit: 781 x 796 km, 98.6° (Epoch: 14 June)

Event Time Altitude Azimuth Distance (km) Brightness Sun altitude
Rises 16:27:37 0° 16° (NNE) 3,308 7.3 -22.5°
Reaches altitude 10° 16:29:59 10° 19° (NNE) 2,375 6.2 -22.3°
Maximum altitude 16:35:12 65° 102° (ESE) 874 2.7 -21.9°
Enters shadow 16:36:55 41° 167° (SSE) 1,139 3.0 -21.8°
